Regional Weather Roundup
Issued by NWS

Home | Current Version | Previous Version | Graphics & Text | Print | Product List | Glossary On
Versions: 1 2 3 4 5 6 7 8 9 10 11 12 13 14 15 16 17 18 19 20 21 22 23 24 25 26 27 28 29 30 31 32 33 34 35 36 37 38 39 40 41 42 43 44 45 46 47 48 49 50
000
ASUS43 KMPX 221201
RWRMN
WEATHER ROUNDUP FOR MINNESOTA
NATIONAL WEATHER SERVICE TWIN CITIES/CHANHASSEN MN
700 AM CDT SUN APR 22 2018


NOTE: "FAIR" INDICATES FEW OR NO CLOUDS BELOW 12,000 FEET WITH NO
SIGNIFICANT WEATHER AND/OR OBSTRUCTIONS TO VISIBILITY. N/A MEANS
CURRENT SKY AND/OR WEATHER CONDITIONS ARE NOT AVAILABLE.

MNZ060>063-068>070-221300-
   Twin Cities Metro

CITY           SKY/WX    TMP DP  RH WIND       PRES   REMARKS
TWIN CITIES    FAIR      37  32  82 CALM      30.37R
6HR MIN TEMP:  34; 6HR MAX TEMP:  46;

ST PAUL        FAIR      34  32  92 CALM      30.38R
CRYSTAL        FAIR      31  25  78 CALM      30.36R
BLAINE         CLEAR     34  28  80 CALM      30.36R
LAKEVILLE      FAIR      28  28 100 CALM      30.35R
EDEN PRAIRIE   FAIR      33  27  78 N3        30.35R
6HR MIN TEMP:  30; 6HR MAX TEMP:  41;

SOUTH ST PAUL  FAIR      33  29  85 CALM      30.37R
LAKE ELMO      FAIR      32  30  93 CALM      30.38R
$$
MNZ001>005-007-008-013>017-022>024-027-028-221300-
   Northwest Minnesota

CITY           SKY/WX    TMP DP  RH WIND       PRES   REMARKS
BEMIDJI        FAIR      33  29  87 S3        30.28F
HALLOCK        FAIR      39  37  93 S12       30.20S
ROSEAU         FAIR      39  34  81 S9        30.24R
WARROAD        FAIR      37  34  87 S3        30.25R
THIEF RVR FALL FAIR      37  31  78 S8        30.26R
CROOKSTON      FAIR      37  34  87 S10       30.25S
FOSSTON        FAIR      34  28  80 S7        30.27S WCI  28
DETROIT LAKES  FAIR      34  30  86 SE6       30.29F WCI  29
MOORHEAD       FAIR      34  30  86 S8        30.29R WCI  27
PARK RAPIDS    FAIR      31  27  85 SE3       30.30R
MAHNOMEN       FAIR      34  30  83 S7        30.27S WCI  28
$$
MNZ006-009>011-018-025>026-221300-
   North Central Minnesota

CITY           SKY/WX    TMP DP  RH WIND       PRES   REMARKS
BAUDETTE       FAIR      35  30  82 SE3       30.26R
FLAG ISLAND    FAIR      36  30  80 SE8       30.23R
INTL FALLS     FAIR      32  26  78 CALM      30.29R
6HR MIN TEMP:  29; 6HR MAX TEMP:  39;

WASKISH        FAIR      39  30  70 S3        30.28R
BIG FORK       FAIR      28  25  86 CALM      30.31R
LONGVILLE      FAIR      25  23  93 CALM      30.32S
GRAND RAPIDS   FAIR      29  24  82 CALM      30.35R
CRANE LAKE     FAIR      23  21  93 CALM      30.34S
ORR            FAIR      36  18  48 SE3       30.29F
WALKER         FAIR      32  28  88 SE3       30.31R
$$
MNZ012-019>021-037-221300-
   Northeast Minnesota

CITY           SKY/WX    TMP DP  RH WIND       PRES   REMARKS
DULUTH         FAIR      32  21  64 CALM      30.35R
6HR MIN TEMP:  30; 6HR MAX TEMP:  40;

ELY            FAIR      27  21  80 CALM      30.34R
HIBBING        FAIR      25  22  88 CALM      30.34R
EVELETH        FAIR      25  22  90 CALM      30.36R
DULUTH HARBOR  FAIR      30  27  86 CALM      30.38R
TWO HARBORS    FAIR      30  25  80 CALM      30.35R
SILVER BAY     FAIR      27  25  93 CALM      30.35R
GRAND MARAIS     N/A     32  24  72 CALM      30.37R
G MARAIS ARPRT FAIR      28  12  50 CALM      30.35R
$$
MNZ029>031-032-039>041-046>048-054>057-064-221300-
   West Central Minnesota

CITY           SKY/WX    TMP DP  RH WIND       PRES   REMARKS
FERGUS FALLS   FAIR      36  30  80 SE8       30.30R
WHEATON        CLEAR     32  30  93 SE5       30.32R WCI  27
MORRIS         CLEAR     34  34 100 SE7       30.31R WCI  28
ALEXANDRIA     FAIR      36  31  82 S7        30.32R
ELBOW LAKE     FAIR      35  32  87 E6        30.31S WCI  30
WADENA         FAIR      28  28 100 CALM      30.32R FOG
GLENWOOD       FAIR      34  34 100 CALM      30.33S FOG
APPLETON       CLEAR     32  30  93 E5        30.32R FOG     WCI  27
BENSON         CLEAR     32  30  93 SE5       30.34R WCI  27
ORTONVILLE     CLEAR     32  30  93 SE5       30.31R WCI  27
MADISON        CLOUDY    36  34  93 SE6       30.31S
WILLMAR        FAIR      32  30  93 E3        30.36R
$$
MNZ033>034-036-042>043-049>051-058-059-221300-
   Central Minnesota

CITY           SKY/WX    TMP DP  RH WIND       PRES   REMARKS
ST CLOUD       FAIR      29  28  96 CALM      30.35R
6HR MIN TEMP:  28; 6HR MAX TEMP:  33;

SAUK CENTRE    FAIR      29  29  99 CALM      30.34R FOG
PAYNESVILLE    FAIR      32  31  96 CALM      30.35R
AITKIN         FAIR      25  21  86 CALM      30.33R
PINE RIVER     FAIR      27  23  86 CALM      30.35R
BRAINERD       FAIR      27  23  85 CALM      30.34R
STAPLES        FAIR      28  27  93 CALM      30.32S
LONG PRAIRIE   FAIR      30  28  93 SE3       30.34R FOG
LITTLE FALLS   FAIR      30  27  86 CALM      30.35R FOG
LITCHFIELD     FAIR      34  32  93 CALM      30.35R
BUFFALO        FAIR      31  28  86 CALM      30.37R
MAPLE LAKE     FAIR      30  29  96 CALM      30.37R
HUTCHINSON     FAIR      33  32  98 CALM      30.36R
$$
MNZ037-044-045-052-053-221300-
   East Central Minnesota

CITY           SKY/WX    TMP DP  RH WIND       PRES   REMARKS
PRINCETON      FAIR      28  27  93 CALM      30.36R
MORA           FAIR      27  25  93 CALM      30.37S
CAMBRIDGE      FAIR      30  19  64 CALM      30.37R
RUSH CITY      FAIR      28  25  87 CALM      30.38R
MOOSE LAKE     FAIR      27  23  86 CALM      30.35R
HINCKLEY       FAIR      28  23  80 CALM      30.36R
CLOQUET        FAIR      27  19  74 CALM      30.35R
MCGREGOR       FAIR      27  23  86 CALM      30.35R
$$
MNZ071>073-080-081-089-090-097-098-221300-
   Southwest Minnesota

CITY           SKY/WX    TMP DP  RH WIND       PRES   REMARKS
MONTEVIDEO     CLOUDY    34  34 100 SE3       30.33R
GRANITE FALLS  CLOUDY    37  34  87 E5        30.34S
CANBY          CLOUDY    34  32  93 CALM      30.32S
MARSHALL       CLOUDY    35  31  85 CALM      30.33R
REDWOOD FALLS  CLEAR     33  33 100 CALM      30.33R
OLIVIA         CLOUDY    34  32  93 CALM      30.33R
PIPESTONE      PTCLDY   N/A N/A N/A SE5       30.30R
WINDOM         CLEAR     34  19  55 CALM      30.32R
WORTHINGTON    CLEAR     31  29  92 N3        30.31R
JACKSON        CLOUDY    32  30  93 CALM      30.31S
TRACY          CLEAR     40  34  80 S7        30.31R
SLAYTON        PTCLDY    32  30  92 CALM      30.32R
$$
MNZ065>067-074>077-082>085-091>093-221300-
   South Central Minnesota

CITY           SKY/WX    TMP DP  RH WIND       PRES   REMARKS
MANKATO        FAIR      38  32  79 E5        30.35R
NEW ULM        CLEAR     36  30  80 CALM      30.34R
ST JAMES       PTCLDY    30  30 100 CALM      30.34R
FAIRMONT       CLOUDY    32  30  92 CALM      30.32S
GLENCOE        FAIR      32  32 100 CALM      30.34R FOG
OWATONNA       FAIR      36  30  80 E3        30.34R
WASECA         FAIR      36  32  87 NE6       30.35R
ALBERT LEA     CLOUDY    36  28  75 CALM      30.33R
$$
MNZ078>079-086>088-094>096-221300-
   Southeast Minnesota

CITY           SKY/WX    TMP DP  RH WIND       PRES   REMARKS
ROCHESTER      FAIR      38  31  76 E3        30.35R
6HR MIN TEMP:  35; 6HR MAX TEMP:  42;

RED WING       FAIR      30  27  86 CALM      30.36R
STANTON        FAIR      32  30  93 CALM      30.35R
DODGE CENTER   FAIR      36  30  80 E5        30.35R
WINONA         FAIR      34  32  93 CALM      30.37R
AUSTIN         FAIR      34  28  80 CALM      30.33R
PRESTON        FAIR      33  30  90 CALM      30.34S
$$
ABBREVIATIONS USED IN REMARKS
   TC - TEMPERATURES IN CELSIUS
  WCI - WIND CHILL INDEX
   HX - HEAT INDEX
  VSB - VISIBILITY
$$




USA.gov is the U.S. government's official web portal to all federal, state and local government web resources and services.